Regional Weather Roundup
Issued by NWS Sterling, VA

Home | Current Version | Previous Version | Text Only | Print | Product List | Glossary Off
Versions: 1 2 3 4 5 6 7 8 9 10 11 12 13 14 15 16 17 18 19 20 21 22 23 24 25 26 27 28 29 30 31 32 33 34 35 36 37 38 39 40 41 42 43 44 45 46 47 48 49 50

000
ASUS41 KLWX 161511
RWRLWX

REGIONAL WEATHER ROUNDUP
NATIONAL WEATHER SERVICE BALTIMORE MD/WASHINGTON DC
1000 AM EST SAT DEC 16 2017

Note: "FAIR" indicates few or no clouds below 12,000 feet
with no significant weather and/or obstructions to visibility.
 TC=TEMPERATURE CELSIUS

 * =Non NWS site. Station does not report precipitation (e.g. rain,
    snow, etc.), thunder, or fog.

DCZ001-MDZ009-015-VAZ040>042-051-053>054-161600-
WASHINGTON METRO

CITY           SKY/WX    TMP DP  RH WIND       PRES   REMARKS
WASHINGTON NAT MOSUNNY   37  22  54 SW13      30.18R WCI  29
DULLES         MOSUNNY   33  23  66 S10       30.15R WCI  25
ANDREWS AFB    SUNNY     36  22  57 SW12      30.15R WCI  28
FT BELVOIR     SUNNY     37  20  51 S5        30.18R
QUANTICO       SUNNY     38  21  50 W9        30.20S
COLLEGE PARK*  SUNNY     35  21  56 S6        30.16R
LEESBURG*      SUNNY     37  27  65 SW9       30.15R
MANASSAS*      SUNNY     35  26  69 SW8       30.18R WCI  29
GAITHERSBURG*  SUNNY     35  21  56 SW7       30.14R

$$

MDZ006>007-011-014-161600-
BALTIMORE METRO

CITY           SKY/WX    TMP DP  RH WIND       PRES   REMARKS
BWI AIRPORT    MOSUNNY   34  23  64 SW3       30.15R
MD SCIENCE CTR   N/A     35  23  61 MISG      30.17R
MARTIN STATE   MOSUNNY   36  27  69 SW6       30.17R
ANNAPOLIS      PTSUNNY   36  23  59 VRB6      30.17R
FORT MEADE*    MOSUNNY   32  27  80 SW10      30.18R WCI  24

$$

MDZ012-015-019>023-161600-
MARYLAND EASTERN SHORE

CITY           SKY/WX    TMP DP  RH WIND       PRES   REMARKS
OCEAN CITY     PTSUNNY   38  28  67 W6        30.20R
SALISBURY      PTSUNNY   38  30  73 W8        30.19R
BAY BRIDGE AP* PTSUNNY   36  23  60 SW10G17   30.17R WCI  28
CAMBRIDGE*     MOSUNNY   34  27  75 S5        30.19S
EASTON*        SUNNY     37  25  60 W10       30.20R

$$

MDZ017>025-161600-
SOUTHERN MARYLAND

CITY           SKY/WX    TMP DP  RH WIND       PRES   REMARKS
PATUXENT RIVER MOSUNNY   37  25  61 SW10      30.19S
ST INIGOES     SUNNY     38  24  57 SW12      30.20R
LEONARDTOWN*   MOSUNNY   36  28  75 SW7       30.20S

$$

MDZ003>005-161600-
NORTH CENTRAL MARYLAND

CITY           SKY/WX    TMP DP  RH WIND       PRES   REMARKS
FREDERICK*     SUNNY     36  18  48 S12       30.16R WCI  27
HAGERSTOWN APT PTSUNNY   37  20  50 S12G17    30.07S
WESTMINSTER*   PTSUNNY   34  23  64 SW10G16   30.09R WCI  26

$$

MDZ501>502-161600-
WESTERN MARYLAND

CITY           SKY/WX    TMP DP  RH WIND       PRES   REMARKS
OAKLAND*       CLOUDY    28  19  69 W12G21    29.94F WCI  18
CUMBERLAND*    SUNNY     41  23  48 SW6       30.10F

$$

VAZ025>031-161600-
SHENANDOAH VALLEY

CITY           SKY/WX    TMP DP  RH WIND       PRES   REMARKS
WINCHESTER*    SUNNY     36  19  51 S8        30.10S
FRONT ROYAL*   FAIR      36  19  51 MISG      30.11R
LURAY*         SUNNY     37  23  56 S12       30.11R
NEW MARKET*    SUNNY     37  18  47 SW5       30.11R
STAUNTON*      SUNNY     36  20  52 S9        30.14R
WAYNESBORO*    SUNNY     37  19  50 SW10G17   30.12R

$$

WVZ021-048>050-054>055-161600-
EASTERN WEST VIRGINIA PANHANDLE

CITY           SKY/WX    TMP DP  RH WIND       PRES   REMARKS
MARTINSBURG    SUNNY     38  19  46 SW9       30.09S
PETERSBURG*    SUNNY     41  20  43 W5G10     30.07F

$$

VAZ036>039-050-161600-
CENTRAL FOOTHILLS

CITY           SKY/WX    TMP DP  RH WIND       PRES   REMARKS
CHARLOTTESVILL SUNNY     38  21  50 S13       30.16S
CULPEPER*      FAIR      36  24  59 SW8       30.19R
ORANGE*        SUNNY     34  23  64 SW9       30.18R WCI  26
GORDONSVILLE*  SUNNY     33  22  64 SW6       30.18R
WARRENTON*     SUNNY     38  20  48 SW9       30.16S

$$

VAZ055>057-161600-
NORTH AND CENTRAL PIEDMONT

CITY           SKY/WX    TMP DP  RH WIND       PRES   REMARKS
FREDERICKSBRG* SUNNY     34  24  67 SW8       30.19S WCI  27
STAFFORD*      SUNNY     38  24  56 SW7       30.23R

$$

NCZ024-NYZ072-PAZ021-071-VAZ022-071-161600-
OTHER REGIONAL OBSERVATIONS

CITY           SKY/WX    TMP DP  RH WIND       PRES   REMARKS
NEW YORK CITY  MOSUNNY   31  18  58 MISG      30.07S
PHILADELPHIA   PTSUNNY   32  25  75 SW15      30.13S WCI  22
PITTSBURGH     CLOUDY    34  23  64 SW10      30.02R WCI  26
ROANOKE        SUNNY     38  22  52 W13       30.20R
RICHMOND       MOSUNNY   42  23  46 SW6       30.22F
RALEIGH        MOSUNNY   39  24  55 W6        30.28R

$$

ANZ530>537-161600-
MARINE OBSERVATIONS

STATION/POSITION TIME  TEMP    WIND        PRES
                       AIR SEA DIR/SP/G
                 (UTC) (F)     (DEG/KT/KT) (MB)
THOMAS PT LIGHT  1500   36 42  240/ 14/ 16   N/A
BALT KEY BRIDGE  1442   34     220/ 10/ 12 1021.1R
COVE POINT       1406   35     260/ 11/ 16 1022.6
LEWISETTA        1442   36 38  270/  9/ 11 1023.0R
SOLOMONS ISLAND  1442   38 44  240/ 12/ 15 1022.0S
PINEY POINT      1442          270/  6/  8   N/A

$$




USA.gov is the U.S. government's official web portal to all federal, state and local government web resources and services.